Location: Doschendorf
(50.0069°N, 11.0602°E)
Time: 11:05:18
(UTC+00:00)

Cosmos 2034 Rocket - Pass Details

Date: 17 November 2019
Orbit: 959 x 1000 km, 82.9° (Epoch: 14 December)

Event Time Altitude Azimuth Distance (km) Brightness Sun altitude
Rises 17:43:41 0° 348° (NNW) 3,719 7.1 -21.3°
Reaches altitude 10° 17:46:14 10° 346° (NNW) 2,771 6.5 -21.7°
Maximum altitude 17:52:31 66° 266° (W) 1,090 4.4 -22.7°
Drops below altitude 10° 17:58:48 10° 186° (S) 2,764 6.4 -23.7°
Sets 18:01:20 0° 183° (S) 3,709 7.1 -24.1°
